FW3872 Weather Reports


time (UTC)temp
C
wind
direction
speed
KPH
gust
KPH
rain 1hr
cm
rain 24hr
cm
rain mn
cm
humidity
%
barometer
mb
20260906012024 28 0 0.0 4.8 0.00 0.00 0.00 87 1011.5
20260906011557 28 0 0.0 4.8 0.00 0.00 0.00 87 1011.4
20260906011023 28 0 0.0 1.6 0.00 0.00 0.00 86 1011.6
20260906010528 28 296 0.0 3.2 0.00 0.00 0.00 86 1011.6
20260906010054 28 0 0.0 3.2 0.00 0.00 0.00 86 1011.5
20260906005530 28 324 0.0 8.0 0.00 0.00 0.00 86 1011.5
20260906005027 28 225 0.0 9.7 0.00 0.00 0.00 86 1011.6
20260906004556 28 253 3.2 9.7 0.00 0.00 0.00 86 1011.5
20260906004031 28 0 0.0 6.4 0.00 0.00 0.00 86 1011.5
20260906003530 28 243 0.0 6.4 0.00 0.00 0.00 85 1011.5
20260906003057 28 204 3.2 6.4 0.00 0.00 0.00 85 1011.3
20260906002524 28 0 0.0 4.8 0.00 0.00 0.00 85 1011.3
20260906002029 28 233 0.0 3.2 0.00 0.00 0.00 84 1011.3
20260906001553 28 233 1.6 4.8 0.00 0.00 0.00 84 1011.5
20260906001023 28 0 0.0 4.8 0.00 0.00 0.00 83 1011.4
20260906000524 28 0 1.6 6.4 0.00 0.00 0.00 83 1011.3
20260906000104 28 233 1.6 8.0 0.00 0.00 0.00 82 1011.3
20260905235532 28 222 3.2 11.3 0.00 0.00 0.00 82 1011.4
20260905235024 29 236 3.2 11.3 0.00 0.00 0.00 82 1011.3
20260905234554 29 241 3.2 11.3 0.00 0.00 0.00 82 1011.3
20260905234025 29 196 1.6 8.0 0.00 0.00 0.00 82 1011.3
20260905233529 29 231 3.2 8.0 0.00 0.00 0.00 82 1011.1
20260905233057 29 157 1.6 11.3 0.00 0.00 0.00 82 1011.1
20260905232525 29 246 3.2 11.3 0.00 0.00 0.00 82 1011.2
20260905232027 30 234 3.2 11.3 0.00 0.00 0.00 81 1011.2
20260905231554 30 244 3.2 11.3 0.00 0.00 0.00 81 1011.3
20260905231025 30 217 1.6 8.0 0.00 0.00 0.00 81 1011.3
20260905230524 30 261 3.2 8.0 0.00 0.00 0.00 81 1011.3
20260905230053 30 156 4.8 14.5 0.00 0.00 0.00 80 1011.4
20260905225525 30 171 6.4 14.5 0.00 0.00 0.00 79 1011.4
20260905225026 31 221 3.2 16.1 0.00 0.00 0.00 78 1011.5
20260905224605 31 179 4.8 16.1 0.00 0.00 0.00 78 1011.5
20260905224024 31 170 3.2 9.7 0.00 0.00 0.00 79 1011.3
20260905223529 31 186 3.2 9.7 0.00 0.00 0.00 78 1011.3
20260905223052 31 200 4.8 12.9 0.00 0.00 0.00 78 1011.4
20260905222525 31 246 3.2 12.9 0.00 0.00 0.00 78 1011.4
20260905222026 31 223 3.2 11.3 0.00 0.00 0.00 78 1011.4
20260905221547 31 185 4.8 11.3 0.00 0.00 0.00 77 1011.5
20260905221029 31 234 4.8 8.0 0.00 0.00 0.00 78 1011.6
20260905220528 31 172 3.2 14.5 0.00 0.00 0.00 78 1011.5
20260905220104 31 115 3.2 14.5 0.00 0.00 0.00 76 1011.4
20260905215529 31 258 4.8 12.9 0.00 0.00 0.00 77 1011.5
20260905215027 31 253 3.2 12.9 0.00 0.00 0.00 76 1011.6
20260905214552 31 226 4.8 12.9 0.00 0.00 0.00 76 1011.7
20260905214025 31 229 4.8 11.3 0.00 0.00 0.00 76 1011.8
20260905213525 31 243 1.6 8.0 0.00 0.00 0.00 76 1012.0
20260905213052 31 235 3.2 8.0 0.00 0.00 0.00 77 1011.9
20260905212525 31 263 3.2 8.0 0.00 0.00 0.00 76 1011.9
20260905212027 31 175 3.2 11.3 0.00 0.00 0.00 76 1011.9
20260905211550 31 257 3.2 11.3 0.00 0.00 0.00 76 1011.9
20260905211026 31 229 4.8 11.3 0.00 0.00 0.00 76 1011.9
20260905210523 31 219 3.2 16.1 0.00 0.00 0.00 78 1011.8
20260905210058 31 205 6.4 16.1 0.00 0.00 0.00 76 1011.7
20260905205529 31 287 6.4 16.1 0.00 0.00 0.00 76 1011.7
20260905205026 31 199 4.8 17.7 0.00 0.00 0.00 77 1011.6
20260905204552 31 197 6.4 17.7 0.00 0.00 0.00 77 1011.8
20260905204027 31 243 6.4 17.7 0.00 0.00 0.00 77 1011.8
20260905203527 31 199 4.8 17.7 0.00 0.00 0.00 76 1011.7
20260905203048 31 263 6.4 17.7 0.00 0.00 0.00 77 1011.9
20260905202526 31 166 6.4 14.5 0.00 0.00 0.00 76 1011.8
20260905202024 31 202 4.8 14.5 0.00 0.00 0.00 76 1011.9
20260905201549 31 169 4.8 14.5 0.00 0.00 0.00 77 1012.0
20260905201028 31 194 3.2 12.9 0.00 0.00 0.00 78 1012.0
20260905200526 31 215 4.8 14.5 0.00 0.00 0.00 78 1012.0
20260905200056 31 198 4.8 14.5 0.00 0.00 0.00 80 1012.1
20260905195534 31 246 6.4 14.5 0.00 0.00 0.00 80 1012.2
20260905195032 31 249 4.8 12.9 0.00 0.00 0.00 77 1012.3
20260905194552 31 211 4.8 12.9 0.00 0.00 0.00 78 1012.4
20260905194025 31 240 3.2 12.9 0.00 0.00 0.00 77 1012.6
20260905193528 31 209 4.8 14.5 0.00 0.00 0.00 77 1012.7
20260905193050 31 142 4.8 14.5 0.00 0.00 0.00 76 1012.8
20260905192527 31 203 6.4 14.5 0.00 0.00 0.00 76 1012.7
20260905192029 31 156 6.4 14.5 0.00 0.00 0.00 76 1012.9
20260905191547 31 231 4.8 16.1 0.00 0.00 0.00 76 1012.9
20260905191026 31 205 4.8 9.7 0.00 0.00 0.00 76 1012.9
20260905190527 31 232 3.2 12.9 0.00 0.00 0.00 77 1013.1
20260905185527 31 178 6.4 14.5 0.00 0.00 0.00 78 1013.0
20260905185025 31 259 4.8 16.1 0.00 0.00 0.00 78 1013.0
20260905184601 31 221 6.4 16.1 0.00 0.00 0.00 78 1013.1
20260905184025 31 244 6.4 14.5 0.00 0.00 0.00 76 1013.2
20260905183526 31 250 4.8 14.5 0.00 0.00 0.00 78 1013.5
20260905183057 31 240 3.2 12.9 0.00 0.00 0.00 77 1013.6
20260905182524 31 144 3.2 11.3 0.00 0.00 0.00 77 1013.5
20260905182025 31 167 4.8 14.5 0.00 0.00 0.00 77 1013.6
20260905181551 31 149 4.8 14.5 0.00 0.00 0.00 77 1013.7
20260905181026 31 207 4.8 14.5 0.00 0.00 0.00 77 1013.7
20260905180526 31 148 3.2 14.5 0.00 0.00 0.00 78 1013.7
20260905180048 31 166 4.8 12.9 0.00 0.00 0.00 77 1013.8
20260905175531 31 172 4.8 16.1 0.00 0.00 0.00 77 1013.8
20260905175028 31 209 8.0 16.1 0.00 0.00 0.00 78 1013.7
20260905174553 31 226 6.4 12.9 0.00 0.00 0.00 77 1013.9
20260905174024 31 255 3.2 16.1 0.00 0.00 0.00 76 1013.9
20260905173524 31 236 6.4 14.5 0.00 0.00 0.00 76 1013.9
20260905173050 31 241 6.4 16.1 0.00 0.00 0.00 78 1013.8
20260905172523 31 5 6.4 16.1 0.00 0.00 0.00 77 1013.9
20260905172030 31 246 6.4 16.1 0.00 0.00 0.00 75 1013.9
20260905171549 31 221 3.2 11.3 0.00 0.00 0.00 78 1014.0
20260905171026 31 244 3.2 16.1 0.00 0.00 0.00 76 1014.0
20260905170524 31 251 4.8 16.1 0.00 0.00 0.00 77 1014.0
20260905170053 31 242 4.8 16.1 0.00 0.00 0.00 78 1014.1
20260905165526 31 184 3.2 11.3 0.00 0.03 0.00 79 1014.0
20260905165026 31 277 4.8 11.3 0.00 0.03 0.00 79 1014.1
20260905164602 31 297 3.2 8.0 0.00 0.03 0.00 80 1014.2
20260905164026 30 266 3.2 11.3 0.00 0.03 0.00 81 1014.2
20260905163530 30 175 3.2 11.3 0.00 0.03 0.00 81 1014.2
20260905163052 30 272 4.8 11.3 0.00 0.03 0.00 83 1014.2
20260905162527 30 279 0.0 6.4 0.00 0.03 0.00 82 1014.1
20260905162025 30 0 0.0 3.2 0.00 0.03 0.00 83 1014.3
20260905161547 29 38 0.0 6.4 0.00 0.03 0.00 83 1014.3
20260905161025 29 38 0.0 6.4 0.00 0.03 0.00 83 1014.4
20260905160526 28 38 1.6 6.4 0.00 0.03 0.00 83 1014.4
20260905160109 28 26 3.2 8.0 0.00 0.03 0.00 84 1014.3
20260905155526 28 22 3.2 8.0 0.00 0.03 0.00 84 1014.4
20260905155027 29 0 0.0 8.0 0.00 0.03 0.00 83 1014.4
20260905154553 30 260 3.2 12.9 0.00 0.03 0.00 81 1014.4
20260905154024 30 25 3.2 12.9 0.00 0.03 0.00 81 1014.3
20260905153524 31 254 3.2 11.3 0.00 0.03 0.00 80 1014.3
20260905153059 31 153 3.2 11.3 0.00 0.03 0.00 80 1014.2
20260905152524 31 165 3.2 8.0 0.00 0.03 0.00 81 1014.0
20260905152024 31 170 3.2 8.0 0.00 0.03 0.00 81 1014.0
20260905151559 30 157 3.2 11.3 0.00 0.03 0.00 81 1014.1
20260905151026 30 188 1.6 11.3 0.00 0.03 0.00 82 1014.1
20260905150527 30 226 4.8 11.3 0.00 0.03 0.00 80 1014.2
20260905150055 30 196 3.2 6.4 0.00 0.03 0.00 80 1014.1
20260905145527 30 128 3.2 9.7 0.00 0.05 0.00 80 1014.1
20260905145026 30 193 3.2 9.7 0.00 0.05 0.00 82 1014.2
20260905144552 30 192 1.6 9.7 0.00 0.05 0.00 82 1014.2
20260905144027 30 196 1.6 9.7 0.00 0.05 0.00 83 1014.2
20260905143528 30 0 1.6 8.0 0.00 0.05 0.00 84 1014.3
20260905143052 30 301 3.2 8.0 0.00 0.05 0.00 84 1014.2
20260905142532 30 238 1.6 6.4 0.00 0.05 0.00 83 1014.1
20260905142024 30 250 1.6 8.0 0.00 0.05 0.00 86 1014.1
20260905141559 30 283 1.6 11.3 0.00 0.05 0.00 85 1014.1
20260905141027 30 0 4.8 11.3 0.00 0.05 0.00 84 1014.2
20260905140527 29 215 0.0 9.7 0.00 0.05 0.00 85 1014.0
20260905140104 29 0 1.6 9.7 0.00 0.05 0.00 86 1014.0
20260905135524 29 263 3.2 6.4 0.00 0.05 0.00 86 1013.9
20260905135023 29 355 0.0 3.2 0.00 0.05 0.00 88 1013.9
20260905134553 29 0 0.0 3.2 0.00 0.05 0.00 88 1013.9
20260905134024 28 0 0.0 4.8 0.00 0.05 0.00 89 1013.8
20260905133523 28 355 1.6 4.8 0.00 0.05 0.00 90 1013.9
20260905133049 28 0 0.0 4.8 0.00 0.05 0.00 93 1013.9
20260905132524 28 0 0.0 4.8 0.00 0.05 0.00 94 1013.8
20260905132023 27 0 0.0 3.2 0.00 0.05 0.00 95 1013.8
20260905131604 27 0 0.0 1.6 0.00 0.05 0.00 97 1013.7
20260905131027 27 0 0.0 3.2 0.00 0.05 0.00 98 1013.8
20260905130526 26 0 0.0 3.2 0.00 0.05 0.00 98 1013.9
20260905130052 26 0 0.0 3.2 0.00 0.05 0.00 99 1013.9
20260905125527 26 0 0.0 3.2 0.00 0.05 0.00 99 1013.8
20260905125026 26 0 0.0 3.2 0.00 0.05 0.00 99 1013.7
20260905124554 26 0 0.0 3.2 0.00 0.05 0.00 100 1013.6
20260905124023 26 0 0.0 0.0 0.00 0.05 0.00 100 1013.7
20260905123523 26 0 0.0 0.0 0.00 0.05 0.00 100 1013.6
20260905123048 25 0 0.0 0.0 0.00 0.05 0.00 100 1013.6
20260905122525 25 0 0.0 0.0 0.00 0.05 0.00 99 1013.6
20260905122023 25 0 0.0 0.0 0.00 0.05 0.00 99 1013.7
20260905121555 25 0 0.0 0.0 0.00 0.05 0.00 99 1013.7
20260905121026 25 0 0.0 0.0 0.00 0.05 0.00 99 1013.5
20260905120527 25 0 0.0 0.0 0.00 0.05 0.00 99 1013.5
20260905120100 25 0 0.0 0.0 0.00 0.05 0.00 99 1013.4
20260905115530 25 0 0.0 0.0 0.00 0.05 0.00 99 1013.3
20260905115026 25 0 0.0 0.0 0.00 0.05 0.00 99 1013.4
20260905114547 25 0 0.0 0.0 0.00 0.05 0.00 99 1013.3
20260905114028 25 0 0.0 0.0 0.00 0.05 0.00 99 1013.3
20260905113531 25 0 0.0 0.0 0.00 0.05 0.00 99 1013.3
20260905113057 25 0 0.0 0.0 0.00 0.05 0.00 99 1013.3
20260905112526 25 0 0.0 0.0 0.00 0.05 0.00 99 1013.3
20260905112027 25 0 0.0 0.0 0.00 0.05 0.00 99 1013.3
20260905111609 25 0 0.0 0.0 0.00 0.05 0.00 99 1013.3
20260905111028 25 0 0.0 0.0 0.00 0.05 0.00 99 1013.2
20260905110524 25 0 0.0 0.0 0.00 0.05 0.00 99 1013.1
20260905110057 25 0 0.0 0.0 0.00 0.05 0.00 98 1013.1
20260905105526 25 0 0.0 0.0 0.00 0.05 0.00 98 1013.0
20260905105023 25 0 0.0 1.6 0.00 0.05 0.00 98 1013.0
20260905104546 25 0 0.0 1.6 0.00 0.05 0.00 98 1013.0
20260905104025 25 0 0.0 1.6 0.00 0.05 0.00 98 1012.9
20260905103527 25 0 0.0 1.6 0.00 0.05 0.00 98 1012.9
20260905103048 25 0 0.0 1.6 0.00 0.05 0.00 98 1013.0
20260905102524 25 0 0.0 0.0 0.00 0.05 0.00 98 1013.0
20260905102026 25 0 0.0 0.0 0.00 0.05 0.00 98 1012.9
20260905101554 25 0 0.0 0.0 0.00 0.05 0.00 98 1013.0
20260905101026 25 0 0.0 0.0 0.00 0.05 0.00 98 1012.8
20260905100527 25 0 0.0 0.0 0.00 0.05 0.00 98 1012.8
20260905100053 25 0 0.0 0.0 0.00 0.05 0.00 98 1012.8
20260905095524 25 0 0.0 0.0 0.00 0.05 0.00 98 1012.9
20260905095024 25 0 0.0 0.0 0.00 0.05 0.00 97 1012.9
20260905094553 25 0 0.0 0.0 0.00 0.05 0.00 97 1012.8
20260905094023 25 0 0.0 0.0 0.00 0.05 0.00 97 1012.9
20260905093524 25 0 0.0 0.0 0.00 0.05 0.00 97 1012.9
20260905093047 25 0 0.0 0.0 0.00 0.05 0.00 97 1012.9
20260905092523 25 0 0.0 0.0 0.00 0.05 0.00 97 1012.9
20260905092028 25 0 0.0 0.0 0.00 0.05 0.00 97 1013.0
20260905091554 26 0 0.0 0.0 0.00 0.05 0.00 97 1012.8
20260905091024 26 0 0.0 0.0 0.00 0.05 0.00 96 1012.9
20260905090526 26 0 0.0 0.0 0.00 0.05 0.00 96 1012.9
20260905090052 26 0 0.0 0.0 0.00 0.05 0.00 96 1012.9
20260905085527 26 0 0.0 0.0 0.00 0.05 0.00 96 1012.9
20260905085023 26 0 0.0 0.0 0.00 0.05 0.00 96 1013.0
20260905084600 26 0 0.0 0.0 0.00 0.05 0.00 96 1012.9
20260905084027 26 0 0.0 0.0 0.00 0.05 0.00 95 1012.8
20260905083531 26 0 0.0 0.0 0.00 0.05 0.00 95 1012.8
20260905083047 26 0 0.0 1.6 0.00 0.05 0.00 95 1012.8
20260905082528 26 0 0.0 1.6 0.00 0.05 0.00 94 1012.7
20260905082027 26 0 0.0 1.6 0.00 0.05 0.00 94 1012.7
20260905081552 26 0 0.0 1.6 0.00 0.05 0.00 93 1012.7
20260905081030 26 0 0.0 3.2 0.00 0.05 0.00 92 1012.7
20260905080523 26 0 0.0 3.2 0.00 0.05 0.00 92 1012.7
20260905080054 27 0 0.0 1.6 0.00 0.05 0.00 92 1012.7
20260905075523 27 290 0.0 1.6 0.00 0.05 0.00 92 1012.6
20260905075027 27 0 0.0 3.2 0.00 0.05 0.00 92 1012.7
20260905074554 27 0 0.0 3.2 0.00 0.05 0.00 92 1012.7
20260905074023 27 0 0.0 3.2 0.00 0.05 0.00 92 1012.7
20260905073528 27 0 0.0 3.2 0.00 0.05 0.00 92 1012.8
20260905073103 27 0 0.0 3.2 0.00 0.05 0.00 92 1012.7
20260905072524 27 0 0.0 3.2 0.00 0.05 0.00 92 1012.7
20260905072023 27 0 0.0 3.2 0.00 0.05 0.00 93 1012.6
20260905071553 27 0 0.0 3.2 0.00 0.05 0.00 93 1012.6
20260905071026 26 0 0.0 1.6 0.00 0.05 0.00 93 1012.5
20260905070523 26 0 0.0 3.2 0.00 0.05 0.00 94 1012.6
20260905070053 26 186 0.0 3.2 0.00 0.05 0.00 94 1012.6
20260905065528 26 184 0.0 3.2 0.00 0.05 0.00 95 1012.5
20260905065027 26 0 0.0 3.2 0.00 0.05 0.00 95 1012.5
20260905064546 26 0 0.0 1.6 0.00 0.05 0.00 96 1012.5
20260905064029 26 0 0.0 1.6 0.00 0.05 0.00 96 1012.5
20260905063524 26 0 0.0 1.6 0.00 0.05 0.00 96 1012.4
20260905063056 26 0 0.0 1.6 0.00 0.05 0.00 97 1012.3
20260905062530 26 0 0.0 0.0 0.00 0.05 0.00 97 1012.4
20260905062026 26 0 0.0 3.2 0.00 0.05 0.00 97 1012.7
20260905061551 25 0 0.0 3.2 0.00 0.05 0.00 98 1012.7
20260905061025 25 0 0.0 3.2 0.00 0.05 0.00 98 1012.8
20260905060527 25 0 0.0 3.2 0.00 0.05 0.00 97 1012.7
20260905060053 25 0 0.0 0.0 0.00 0.05 0.00 97 1012.7
20260905055524 25 0 0.0 0.0 0.00 0.05 0.00 97 1012.7
20260905055025 25 0 0.0 0.0 0.00 0.05 0.00 97 1012.7
20260905054551 25 0 0.0 0.0 0.00 0.05 0.00 97 1012.7
20260905054027 25 0 0.0 0.0 0.00 0.05 0.00 97 1012.8
20260905053529 25 0 0.0 0.0 0.00 0.05 0.00 97 1012.8
20260905053100 25 0 0.0 0.0 0.00 0.05 0.00 97 1012.8
20260905052524 26 0 0.0 0.0 0.00 0.05 0.00 97 1012.9
20260905052024 26 0 0.0 0.0 0.00 0.05 0.00 97 1013.0
20260905051554 26 0 0.0 0.0 0.00 0.05 0.00 97 1013.1
20260905051023 26 0 0.0 0.0 0.00 0.05 0.00 97 1013.1
20260905050527 26 0 0.0 0.0 0.00 0.05 0.00 97 1013.1
20260905050054 26 0 0.0 0.0 0.00 0.05 0.00 97 1013.1
20260905045527 26 0 0.0 0.0 0.00 0.20 0.05 96 1013.3
20260905045024 26 0 0.0 1.6 0.00 0.20 0.05 96 1013.3
20260905044553 26 0 0.0 1.6 0.00 0.20 0.05 96 1013.3
20260905044023 26 0 0.0 0.0 0.00 0.20 0.05 96 1013.5
20260905043523 26 0 0.0 0.0 0.00 0.20 0.05 96 1013.5
20260905043046 26 0 0.0 0.0 0.00 0.20 0.05 96 1013.5
20260905042527 26 0 0.0 0.0 0.00 0.20 0.05 95 1013.6
20260905042026 26 0 0.0 0.0 0.00 0.20 0.05 95 1013.5
20260905041553 26 0 0.0 0.0 0.00 0.20 0.05 95 1013.5
20260905041025 26 0 0.0 0.0 0.00 0.20 0.05 95 1013.6
20260905040526 26 0 0.0 0.0 0.00 0.20 0.05 95 1013.5
20260905040051 26 0 0.0 1.6 0.00 0.20 0.05 95 1013.6
20260905035525 26 0 0.0 1.6 0.00 0.20 0.05 94 1013.5
20260905035028 26 0 0.0 1.6 0.00 0.20 0.05 94 1013.6
20260905034556 26 0 0.0 1.6 0.00 0.20 0.05 94 1013.6
20260905034027 26 0 0.0 0.0 0.00 0.20 0.05 95 1013.6
20260905033526 26 0 0.0 0.0 0.00 0.20 0.05 95 1013.6
20260905033100 26 0 0.0 0.0 0.00 0.20 0.05 95 1013.7
20260905032524 26 0 0.0 0.0 0.00 0.20 0.05 95 1013.8
20260905032025 26 0 0.0 0.0 0.00 0.20 0.05 95 1013.8
20260905031554 26 0 0.0 0.0 0.00 0.20 0.05 95 1013.8
20260905031027 26 0 0.0 0.0 0.00 0.20 0.05 95 1013.8
20260905030526 26 0 0.0 0.0 0.00 0.20 0.05 95 1013.8
20260905030050 26 0 0.0 0.0 0.00 0.20 0.05 94 1013.7
20260905025526 26 0 0.0 0.0 0.00 0.20 0.05 94 1013.9
20260905025026 26 0 0.0 1.6 0.00 0.20 0.05 94 1013.8
20260905024547 26 0 0.0 1.6 0.00 0.20 0.05 94 1014.0
20260905024029 26 0 0.0 1.6 0.00 0.20 0.05 94 1014.1
20260905023524 26 0 0.0 0.0 0.00 0.20 0.05 94 1014.0
20260905023102 26 0 0.0 0.0 0.00 0.20 0.05 94 1013.9
20260905022527 26 0 0.0 0.0 0.00 0.20 0.05 93 1013.9
20260905022026 26 0 0.0 0.0 0.00 0.20 0.05 93 1013.8
20260905021553 26 0 0.0 0.0 0.00 0.20 0.05 93 1013.7
20260905021028 27 0 0.0 0.0 0.00 0.20 0.05 92 1013.7
20260905020526 27 0 0.0 0.0 0.00 0.20 0.05 92 1013.7
20260905020104 27 0 0.0 0.0 0.00 0.20 0.05 91 1013.6
20260905015527 27 0 0.0 0.0 0.00 0.20 0.05 91 1013.6
20260905015030 27 0 0.0 0.0 0.00 0.20 0.05 91 1013.6
20260905014548 27 0 0.0 0.0 0.00 0.20 0.05 90 1013.6
20260905014026 27 0 0.0 1.6 0.00 0.20 0.05 89 1013.6
20260905013526 27 0 0.0 1.6 0.00 0.20 0.05 89 1013.5
20260905013046 27 0 0.0 1.6 0.00 0.20 0.05 88 1013.5
20260905012526 27 0 0.0 1.6 0.00 0.20 0.05 88 1013.4